TimeEDT,TemperatureF,Dew PointF,Humidity,Sea Level PressureIn,VisibilityMPH,Wind Direction,Wind SpeedMPH,Gust SpeedMPH,PrecipitationIn,Events,Conditions,WindDirDegrees,DateUTC
12:53 AM,72.0,64.9,78,30.12,10.0,WSW,4.6,-,N/A,,Mostly Cloudy,250,2013-07-07 04:53:00
1:20 AM,71.6,64.4,78,30.16,10.0,SSW,3.5,-,N/A,,Scattered Clouds,200,2013-07-07 05:20:00
1:53 AM,71.1,66.0,84,30.12,10.0,SW,5.8,-,N/A,,Mostly Cloudy,220,2013-07-07 05:53:00
2:53 AM,71.1,66.0,84,30.11,10.0,Calm,Calm,-,N/A,,Mostly Cloudy,0,2013-07-07 06:53:00
3:53 AM,71.1,66.0,84,30.10,10.0,Calm,Calm,-,N/A,,Overcast,0,2013-07-07 07:53:00
4:53 AM,70.0,66.0,87,30.09,10.0,Calm,Calm,-,N/A,,Overcast,0,2013-07-07 08:53:00
5:25 AM,69.8,66.2,88,30.14,10.0,Calm,Calm,-,N/A,,Mostly Cloudy,0,2013-07-07 09:25:00
5:53 AM,69.1,66.0,90,30.09,10.0,Calm,Calm,-,N/A,,Partly Cloudy,0,2013-07-07 09:53:00
6:53 AM,69.1,66.9,93,30.09,10.0,East,3.5,-,N/A,,Scattered Clouds,100,2013-07-07 10:53:00
7:53 AM,72.0,66.0,81,30.10,10.0,SSE,3.5,-,N/A,,Partly Cloudy,150,2013-07-07 11:53:00
8:53 AM,73.9,66.9,79,30.10,10.0,Calm,Calm,-,N/A,,Mostly Cloudy,0,2013-07-07 12:53:00
9:53 AM,75.9,66.9,74,30.10,10.0,Calm,Calm,-,N/A,,Overcast,0,2013-07-07 13:53:00
10:35 AM,73.4,66.2,78,30.13,1.8,Calm,Calm,-,0.04,Rain,Light Rain,0,2013-07-07 14:35:00
10:42 AM,75.2,68.0,78,30.13,7.0,WNW,4.6,-,0.04,Rain,Light Rain,300,2013-07-07 14:42:00
10:53 AM,75.9,68.0,76,30.09,7.0,NW,3.5,-,0.04,,Overcast,310,2013-07-07 14:53:00
11:53 AM,73.9,66.9,79,30.12,0.5,West,15.0,20.7,0.10,Rain,Heavy Rain,270,2013-07-07 15:53:00
12:53 PM,68.0,64.9,90,30.09,6.0,SSE,4.6,-,0.54,Rain,Light Rain,150,2013-07-07 16:53:00
1:32 PM,69.8,66.2,88,30.14,10.0,West,6.9,-,0.00,,Mostly Cloudy,260,2013-07-07 17:32:00
1:46 PM,71.6,66.2,83,30.14,10.0,WSW,6.9,-,0.00,,Mostly Cloudy,240,2013-07-07 17:46:00
1:53 PM,72.0,66.9,84,30.09,10.0,SSW,5.8,-,0.00,,Mostly Cloudy,210,2013-07-07 17:53:00
2:30 PM,71.6,66.2,83,30.14,10.0,SSW,6.9,-,N/A,,Overcast,210,2013-07-07 18:30:00
2:49 PM,73.4,66.2,78,30.13,10.0,SW,6.9,-,N/A,,Overcast,220,2013-07-07 18:49:00
2:53 PM,73.0,66.0,79,30.09,10.0,SSW,6.9,-,N/A,,Overcast,210,2013-07-07 18:53:00
3:27 PM,73.4,66.2,78,30.11,10.0,SSW,8.1,-,0.00,,Mostly Cloudy,210,2013-07-07 19:27:00
3:36 PM,75.2,66.2,73,30.10,10.0,SW,5.8,-,0.00,,Mostly Cloudy,220,2013-07-07 19:36:00
3:53 PM,75.0,66.9,76,30.05,10.0,Variable,6.9,-,0.00,,Mostly Cloudy,0,2013-07-07 19:53:00
4:00 PM,75.2,66.2,73,30.09,10.0,West,5.8,-,N/A,,Mostly Cloudy,260,2013-07-07 20:00:00
4:53 PM,75.9,66.0,71,30.05,10.0,WSW,9.2,-,N/A,,Overcast,240,2013-07-07 20:53:00
5:53 PM,75.0,64.9,71,30.04,10.0,WSW,9.2,-,N/A,,Overcast,240,2013-07-07 21:53:00
6:53 PM,73.9,66.0,76,30.04,10.0,SSW,5.8,-,N/A,,Overcast,200,2013-07-07 22:53:00
7:41 PM,71.6,66.2,83,30.10,1.8,West,3.5,-,0.03,Rain,Rain,260,2013-07-07 23:41:00
7:48 PM,69.8,66.2,88,30.10,3.0,West,4.6,-,0.03,Rain,Light Rain,260,2013-07-07 23:48:00
7:53 PM,71.1,66.9,87,30.06,10.0,West,5.8,-,0.03,Rain,Light Rain,260,2013-07-07 23:53:00
8:53 PM,71.1,66.9,87,30.06,10.0,SW,5.8,-,0.01,,Overcast,220,2013-07-08 00:53:00
9:53 PM,70.0,66.9,90,30.08,10.0,Calm,Calm,-,N/A,,Mostly Cloudy,0,2013-07-08 01:53:00
10:53 PM,69.1,66.0,90,30.10,10.0,SW,4.6,-,N/A,,Clear,220,2013-07-08 02:53:00
11:53 PM,69.1,64.9,87,30.10,10.0,Calm,Calm,-,N/A,,Partly Cloudy,0,2013-07-08 03:53:00